Theta_e
321 321 321 321 322 322 322 322 322 322 322 322 323 323 323 324 323 317 306 313 316 330 321 313 313 311 312 310 309 308 302 298 299 298 301 305 303 305 306 306 306 308 309 310 311
320 320 320 321 321 321 322 322 322 321 321 321 322 322 323 323 315 309 321 325 331 326 312 310 308 309 308 308 309 306 301 300 303 303 302 303 303 305 304 305 306 307 310 309 310
320 320 320 320 320 321 322 322 322 322 321 321 321 321 322 322 307 305 325 329 334 321 313 311 310 309 305 307 307 305 300 304 302 303 303 302 303 305 304 302 306 306 309 311 309
319 319 319 320 320 321 322 322 323 322 322 321 321 321 322 315 298 306 331 331 330 314 311 309 308 305 303 302 306 301 304 304 304 303 303 302 304 303 304 305 309 310 310 310 308
319 319 319 319 320 321 322 323 323 323 322 321 321 320 315 303 305 323 330 332 315 311 309 307 305 305 301 302 302 301 303 304 305 304 304 304 303 303 304 307 309 309 307 307 308
319 319 319 319 320 321 322 323 323 323 322 322 321 320 306 297 312 324 324 313 312 310 308 308 306 306 302 301 301 301 301 302 302 302 303 300 302 300 304 307 306 306 306 307 307
320 319 319 319 321 322 322 323 322 321 322 321 321 317 303 304 314 319 315 313 310 310 306 307 307 305 304 300 302 301 298 300 301 300 300 301 298 298 304 305 303 304 306 306 306
319 319 319 320 321 322 322 323 321 321 321 321 320 314 301 307 314 311 309 307 309 308 307 307 307 305 302 302 300 297 296 293 299 298 299 300 294 302 304 301 302 304 305 305 306
319 318 319 320 320 321 322 321 319 322 321 321 313 304 300 311 305 308 308 305 307 306 307 306 307 302 301 297 295 295 291 293 294 298 297 298 295 301 302 302 301 303 304 305 306
319 319 319 320 321 321 321 316 317 318 319 318 311 301 303 300 305 305 306 307 304 305 303 303 302 298 296 295 289 293 291 293 291 297 296 294 294 298 301 300 300 301 303 304 304
319 320 320 320 321 322 314 309 310 308 306 305 304 300 301 305 306 303 305 304 304 301 297 299 295 293 297 297 297 294 293 292 295 298 295 294 295 297 300 300 300 301 302 303 304
320 320 321 321 322 320 310 305 302 303 302 305 304 302 303 306 301 301 305 300 299 296 296 294 292 298 297 294 293 293 292 291 295 297 292 294 293 296 299 299 301 301 302 303 304
321 320 320 321 321 317 308 305 309 307 300 302 301 299 301 303 301 300 302 300 297 294 294 294 298 296 294 294 292 293 290 292 291 294 295 292 293 294 300 299 301 302 302 302 302
321 320 321 321 317 314 309 308 309 307 298 298 296 298 300 300 295 300 301 299 296 293 294 293 296 292 292 291 293 289 295 292 291 289 288 292 286 295 298 298 300 301 302 300 301
319 319 320 321 317 313 310 308 307 302 287 297 294 303 301 296 297 297 300 299 294 293 293 293 291 290 291 292 293 292 292 291 290 289 288 290 286 294 293 295 297 299 299 300 300
315 317 318 315 314 312 308 305 305 295 286 295 295 295 295 296 295 297 297 300 297 293 293 293 294 294 294 293 293 293 291 291 289 289 284 291 289 291 294 294 296 298 298 299 300
311 313 316 316 312 309 310 312 295 288 300 295 292 293 292 292 293 293 294 293 295 291 292 295 296 294 293 291 292 291 289 285 285 285 285 288 287 291 297 297 297 297 298 298 297
309 310 313 316 312 311 312 301 287 294 295 300 294 293 295 294 295 293 292 294 293 294 291 288 287 291 294 293 294 292 291 285 280 282 286 292 286 293 298 299 297 297 294 295 294
310 311 310 315 312 313 304 292 291 295 299 297 297 294 295 295 295 294 294 295 298 293 290 289 289 293 291 294 294 290 286 291 285 286 283 288 292 297 296 295 294 294 294 293 293
306 304 305 313 313 310 298 290 294 301 300 299 292 295 290 293 293 292 294 294 293 294 295 293 287 296 294 292 291 290 292 285 285 278 278 284 286 287 292 291 292 292 291 291 291
304 296 302 313 313 302 290 292 295 301 302 297 295 293 293 292 293 292 292 295 297 291 294 294 290 290 292 289 291 288 286 287 287 285 280 279 284 294 290 289 289 290 289 288 288
300 291 306 312 296 296 291 293 295 295 298 298 297 296 293 293 291 290 290 294 298 297 292 295 290 285 288 295 294 293 290 290 283 282 284 283 284 297 293 289 288 287 286 286 286
295 293 304 307 288 290 293 293 295 293 294 293 292 296 296 291 287 291 291 294 295 295 292 294 288 283 285 289 289 288 290 290 289 285 282 280 283 295 294 292 286 285 284 285 285
292 286 293 299 298 291 289 289 289 294 294 295 293 295 292 289 292 288 290 293 293 291 292 293 286 285 281 284 288 285 287 288 285 281 282 282 284 288 289 289 284 284 284 284 284
290 286 290 287 289 291 290 289 286 286 292 292 289 290 288 284 285 286 288 287 288 287 287 288 282 284 285 285 282 282 281 281 280 281 277 279 280 284 287 282 281 282 281 282 283
286 286 288 285 286 287 288 287 285 287 287 286 285 287 285 284 285 282 283 284 284 283 282 283 280 280 277 281 281 279 280 281 280 280 279 280 279 283 282 282 281 281 280 280 282
288 290 287 283 283 283 283 285 282 285 283 285 283 282 280 283 286 286 286 284 284 282 280 279 278 276 273 279 276 272 277 279 280 281 280 275 279 281 278 278 279 280 280 280 282
Wind_Speed
9 9 9 9 10 9 9 9 9 9 9 9 10 10 10 10 7 3 7 4 5 13 7 8 3 4 2 3 2 2 4 6 5 6 2 4 5 4 3 8 5 8 6 2 7
7 7 8 8 8 8 9 9 9 8 8 9 10 10 10 9 3 9 3 4 10 14 10 12 8 6 3 3 3 5 5 6 4 5 5 3 5 7 6 12 15 13 14 7 6
7 7 7 8 8 9 9 9 9 10 9 9 10 11 9 5 5 2 3 8 13 7 5 4 6 4 4 3 6 4 7 6 7 12 7 6 8 6 10 14 17 15 10 9 12
5 6 7 8 8 9 10 11 11 10 10 9 9 10 10 3 7 2 2 9 11 7 9 8 7 5 5 7 5 7 12 11 4 3 4 7 6 10 13 24 22 18 16 13 13
5 5 6 7 8 10 11 12 12 11 10 10 10 9 3 3 8 2 7 11 9 7 9 8 8 6 7 5 4 9 11 10 9 8 10 11 20 18 19 24 23 20 15 17 17
5 6 7 8 9 11 12 12 13 12 11 10 8 8 3 9 3 5 8 7 7 10 7 7 6 5 3 5 8 3 8 13 10 13 11 10 25 2 14 14 15 13 16 15 15
5 6 7 8 10 11 12 13 13 12 10 6 6 4 4 13 3 5 5 3 4 6 5 4 4 5 3 4 2 5 12 15 14 7 9 9 14 16 21 13 16 15 14 13 13
6 6 7 9 11 13 13 13 10 7 4 5 5 3 8 2 3 3 2 3 2 2 1 2 4 2 3 1 3 6 4 10 3 7 3 10 17 20 6 6 13 19 20 20 22
6 6 8 10 12 15 14 13 1 7 8 9 4 2 7 2 1 2 1 3 5 3 4 5 3 2 2 6 7 6 11 13 11 5 3 11 12 13 8 12 25 25 23 22 21
6 6 7 9 11 15 17 4 3 2 3 2 2 3 4 1 2 3 2 6 4 7 4 2 2 6 3 7 11 12 10 10 10 7 8 13 20 21 25 21 25 26 25 18 17
7 7 7 8 10 12 8 2 3 2 1 3 5 6 5 2 2 2 1 4 4 4 8 3 8 12 18 18 18 14 16 21 21 19 19 21 20 21 23 23 27 25 22 14 12
7 8 7 8 10 11 2 3 2 2 8 7 12 8 4 3 3 3 4 7 5 7 5 4 12 16 7 5 11 16 19 21 19 15 6 18 24 23 23 22 22 22 18 14 13
8 8 7 6 8 2 2 4 4 4 5 6 2 3 2 4 4 1 5 5 5 7 10 17 11 3 10 14 16 15 14 18 22 19 15 12 13 3 11 7 15 5 12 10 7
8 8 7 5 3 2 2 4 5 3 5 3 0 1 1 2 3 2 1 1 2 5 6 9 4 6 4 10 10 15 10 15 15 7 9 9 13 10 11 12 11 8 10 12 12
1 6 7 9 3 3 3 5 3 4 8 2 2 0 1 1 5 4 1 2 3 3 4 3 1 2 6 9 7 5 2 3 5 9 10 6 9 2 3 5 7 13 12 11 10
6 4 7 2 1 1 3 5 2 1 8 1 3 3 3 2 3 5 4 4 1 3 3 11 1 4 5 3 5 1 4 5 2 4 10 9 10 3 2 3 4 2 8 10 12
7 6 4 0 1 4 3 2 2 6 0 4 4 2 1 4 4 3 5 8 5 5 9 11 14 4 4 5 4 3 5 8 7 5 10 4 5 6 9 6 5 3 12 19 18
2 1 2 1 3 3 1 1 10 8 5 2 2 4 5 4 2 3 3 5 1 4 7 8 15 10 8 8 7 10 11 8 7 10 16 10 11 5 7 3 12 19 18 19 21
0 1 1 4 6 2 3 7 3 6 3 4 0 7 8 2 3 4 4 11 6 13 8 6 12 1 6 5 4 5 9 3 2 3 8 12 19 15 5 10 15 16 17 18 17
3 1 2 4 5 2 2 8 7 5 3 1 5 6 5 3 4 3 6 3 2 6 3 3 11 10 6 2 4 8 3 3 3 6 10 14 21 14 11 8 8 11 13 14 16
2 2 1 6 3 3 6 7 4 6 9 7 12 15 16 11 10 14 10 3 6 2 5 5 7 7 3 7 14 5 6 6 4 6 7 13 16 3 10 7 6 8 9 11 12
3 3 1 5 5 3 8 5 1 2 1 5 2 8 9 6 11 11 13 10 3 1 9 12 6 11 22 16 7 6 11 14 9 9 10 14 19 17 9 10 7 5 4 5 6
4 2 1 3 7 7 3 3 4 4 6 3 4 7 4 4 4 9 9 4 8 2 3 4 5 7 8 7 2 5 8 14 12 4 16 18 4 3 7 8 9 4 3 5 6
3 4 1 2 1 5 8 7 6 2 6 7 6 6 4 8 8 9 6 2 2 4 6 2 4 6 10 13 13 10 8 8 5 8 16 17 24 19 19 22 9 5 4 5 7
1 3 1 7 8 8 7 2 5 4 1 1 1 4 2 3 2 8 4 3 4 6 3 0 10 14 17 11 7 9 8 13 15 14 10 15 22 23 20 12 10 7 9 10 8
3 3 2 3 2 6 10 8 15 11 3 7 9 7 2 7 8 10 3 4 7 2 2 2 7 5 9 9 14 18 19 23 22 23 25 25 28 4 1 6 11 13 12 11 8
1 1 1 4 4 5 5 5 5 9 2 1 4 4 2 4 3 2 4 4 5 5 3 3 3 3 10 11 14 14 21 20 22 25 23 21 10 5 1 7 12 15 16 15 13
Wind_Direction
45 44 42 41 33 26 21 16 7 358 354 345 341 340 338 339 308 185 238 201 177 155 123 136 132 129 156 118 129 192 224 244 243 195 213 179 242 170 296 271 223 205 250 358 125
34 37 35 25 24 13 6 358 353 347 342 335 328 327 328 337 283 252 246 172 145 157 148 169 168 162 160 148 176 225 235 248 236 223 249 251 245 290 254 258 255 247 243 220 182
21 15 18 13 2 352 350 344 339 333 330 324 317 315 318 308 285 238 108 160 157 168 154 137 137 173 207 192 192 181 243 243 231 243 260 274 263 249 263 271 261 270 276 234 220
3 1 357 354 345 339 337 334 327 323 315 310 305 307 312 238 296 81 333 161 155 160 135 140 156 182 224 219 191 244 242 245 271 221 249 265 294 255 242 259 275 285 285 277 240
339 338 338 331 329 331 327 324 320 314 303 299 297 308 267 218 250 92 113 133 149 168 185 173 181 184 223 219 201 238 260 259 257 264 264 278 264 266 262 262 276 279 273 270 263
322 327 327 324 320 321 318 318 318 312 299 280 278 305 216 252 80 135 126 142 173 181 179 187 226 213 250 234 224 348 282 284 276 254 242 245 271 260 264 261 277 272 274 271 267
308 321 323 320 316 311 311 314 318 315 309 272 240 256 240 259 59 124 135 167 174 197 177 191 155 205 153 243 258 303 297 294 261 263 232 215 268 233 260 282 282 285 280 278 261
298 309 314 314 313 310 311 316 318 324 356 147 176 232 257 38 104 138 149 78 93 93 77 124 167 156 240 10 263 275 255 285 300 179 166 203 270 285 309 295 288 293 290 284 277
286 300 314 318 321 314 320 324 104 64 98 129 158 246 263 161 260 69 175 143 113 83 65 113 160 201 175 241 268 226 269 256 292 228 129 207 278 276 268 295 287 286 282 279 285
274 289 309 320 321 317 326 289 186 148 142 208 119 217 206 299 109 94 48 140 125 133 115 152 152 215 190 212 250 273 256 251 260 284 247 270 269 282 287 284 279 279 277 284 292
273 284 300 315 317 326 342 236 248 200 315 246 249 261 266 113 147 88 106 125 120 170 198 155 212 213 233 229 251 287 274 279 276 283 297 289 293 291 284 281 273 276 280 295 290
261 276 292 307 322 331 309 51 78 52 292 252 258 273 16 336 305 116 174 186 188 209 138 183 235 236 282 295 253 262 271 275 280 277 287 294 300 285 283 269 277 278 294 295 307
248 259 268 292 322 326 50 150 167 164 255 289 217 235 302 209 224 170 210 151 199 190 209 247 267 283 218 245 264 253 266 278 283 305 283 304 278 271 282 287 269 304 281 321 339
242 251 263 282 270 135 217 184 184 201 266 252 129 117 138 140 83 312 176 151 147 272 230 256 313 269 269 258 265 280 289 274 282 292 289 3 296 308 293 283 319 320 30 46 59
221 244 232 211 122 219 88 127 147 248 281 72 131 340 172 164 131 46 308 141 226 167 213 262 189 164 219 238 194 261 8 276 273 267 300 243 268 32 299 290 69 46 72 47 48
48 46 149 126 242 122 145 142 166 120 240 135 157 164 165 184 170 151 168 124 128 202 217 274 308 255 263 198 207 93 274 252 214 266 258 260 226 133 113 108 48 79 55 59 40
56 19 168 16 214 143 181 209 197 208 289 183 168 172 271 178 182 255 184 179 191 262 277 293 267 214 205 236 164 224 308 320 277 222 275 97 272 282 295 220 295 38 72 47 41
112 188 186 165 132 185 190 117 223 169 216 9 146 150 217 185 197 188 251 269 182 222 300 289 295 183 171 215 264 238 233 206 278 275 292 307 257 291 238 336 44 45 42 35 33
156 218 280 181 159 211 84 229 236 181 205 176 16 279 268 199 279 238 242 280 271 187 215 253 252 218 213 191 225 159 208 206 203 319 275 253 267 287 336 78 45 40 34 30 25
116 89 226 148 170 142 156 213 235 242 148 208 241 185 230 159 267 246 235 129 232 199 298 313 283 232 260 161 199 216 116 196 119 224 236 267 288 282 251 72 45 27 27 18 13
107 143 111 163 178 151 238 244 253 221 198 233 250 255 254 270 251 271 261 246 242 129 92 50 241 262 167 204 243 208 221 223 300 207 249 279 278 40 97 88 47 38 27 18 21
148 188 132 171 180 194 229 198 207 237 19 231 277 253 253 265 269 259 251 240 133 266 276 252 224 255 265 274 272 282 260 244 239 246 231 240 250 255 107 107 54 68 81 40 20
152 108 27 246 206 208 196 210 236 201 223 200 248 215 200 241 274 244 258 68 34 40 350 21 234 263 258 237 116 223 260 259 274 257 251 258 248 351 276 307 51 41 33 11 346
130 142 220 237 239 201 228 243 226 161 224 224 246 236 242 265 234 265 267 99 73 37 353 35 260 276 270 295 330 270 251 258 263 256 285 271 288 298 298 313 16 7 348 321 317
171 182 355 185 219 206 208 222 183 188 226 47 210 166 124 258 279 247 260 322 70 22 79 340 267 281 280 296 290 270 279 270 267 274 263 282 278 274 292 310 332 334 335 316 302
159 164 112 121 129 172 209 233 242 234 246 231 260 295 278 247 248 283 266 204 274 60 111 37 270 294 276 266 263 283 275 267 270 270 267 266 268 352 68 321 313 320 327 312 289
150 65 76 138 163 177 201 209 163 144 66 120 130 124 221 248 226 239 236 265 263 240 209 247 244 248 261 291 309 276 255 272 278 276 275 276 304 144 248 320 313 309 315 307 301